Vertical_Velocity
1 1 -0 -0 -1 -2 -0 -0 -1 1 1 -0 -2 -3 -1 -3 -3 -2 -4 -3 -3 -2
-0 0 -1 0 -0 1 -1 0 -1 2 1 -1 -2 -1 1 1 -1 -2 -2 -3 -2 -2
-1 0 -1 -2 -2 -1 1 1 -0 -0 -1 -1 -2 -1 -2 -1 -1 -1 0 -0 -1 -1
-1 -2 -1 1 -0 -1 -0 -2 -2 -2 -2 -1 -1 -2 -1 -1 -1 -0 -0 -1 -1 0
-1 -1 -3 -2 -2 -2 -1 -0 1 1 -1 -1 -1 -1 -1 -1 -2 -1 -0 -0 -0 -0
-1 -1 -1 -1 -2 -1 1 0 -2 -1 -1 -2 -2 -1 -2 -1 -1 -2 -1 -1 -1 0
0 1 2 2 1 1 -0 -1 -2 -1 0 -0 -0 -1 -0 -0 -0 -1 -1 -1 -2 -0
0 -0 -1 -1 -0 -1 -1 -1 -0 0 0 0 0 -1 -1 -1 0 -0 1 -0 -1 -1
0 1 -1 0 2 1 1 1 1 0 -0 -0 0 0 1 1 0 -0 -1 1 2 0
0 3 2 1 1 1 1 1 1 2 2 2 1 0 -1 1 -0 1 0 0 -1 2
-0 1 0 1 1 2 1 2 1 2 1 1 0 1 1 -1 1 0 -1 -0 1 -3
0 -0 -2 -1 -2 -1 -0 0 1 3 2 1 2 -1 1 -0 -1 -2 -1 -3 1 2
-1 -0 2 0 2 -0 -2 -1 -1 -2 -2 -1 -0 -3 -1 3 -1 1 3 0 -3 3
-2 -3 -2 -2 -0 3 2 0 1 2 2 3 1 1 1 -0 -1 -1 2 1 0 -1
Height
3062 3061 3059 3058 3057 3056 3054 3053 3052 3049 3047 3045 3042 3039 3037 3033 3030 3027 3025 3021 3019 3017
3058 3055 3054 3052 3051 3050 3049 3048 3046 3044 3042 3039 3037 3035 3032 3029 3025 3023 3019 3016 3013 3010
3052 3050 3049 3048 3046 3045 3044 3043 3041 3039 3037 3034 3032 3029 3026 3023 3020 3017 3013 3010 3007 3004
3048 3047 3045 3043 3041 3040 3038 3037 3035 3034 3032 3029 3027 3024 3021 3018 3016 3012 3008 3004 3001 2998
3043 3042 3040 3039 3037 3035 3034 3032 3029 3027 3026 3024 3022 3019 3016 3012 3009 3006 3003 2999 2995 2993
3039 3037 3035 3034 3032 3031 3029 3027 3025 3023 3021 3018 3015 3012 3009 3006 3003 3000 2996 2993 2989 2986
3033 3031 3029 3027 3026 3024 3022 3020 3018 3016 3014 3011 3008 3006 3003 3000 2997 2993 2990 2986 2983 2980
3028 3026 3023 3021 3018 3016 3014 3012 3010 3008 3005 3003 3000 2998 2995 2993 2990 2987 2984 2980 2977 2973
3022 3020 3017 3014 3012 3009 3007 3005 3003 3000 2998 2995 2993 2990 2987 2985 2982 2979 2976 2974 2971 2967
3014 3012 3010 3008 3005 3002 3000 2998 2995 2993 2990 2988 2985 2982 2979 2976 2974 2970 2968 2965 2963 2960
3007 3004 3001 2998 2996 2994 2992 2990 2988 2986 2983 2981 2977 2974 2971 2968 2966 2962 2960 2957 2954 2951
3001 2998 2994 2991 2988 2985 2983 2981 2979 2978 2975 2972 2970 2966 2963 2960 2957 2956 2952 2949 2945 2943
2992 2989 2986 2983 2981 2978 2975 2974 2971 2969 2966 2964 2962 2958 2956 2952 2950 2947 2945 2941 2939 2934
2987 2983 2979 2975 2973 2971 2968 2965 2963 2961 2959 2956 2953 2950 2948 2945 2942 2939 2937 2933 2931 2927